Rbgn^[z[y[W
メイン
   新天体発見情報
     Comet P/2013 J4 (PANSTARRS) = P/2019 Y2 (Fuls)
投稿するにはまず登録を

スレッド表示 | 新しいものから 前のトピック | 次のトピック | 下へ
投稿者 スレッド
佐藤裕久
投稿日時: 2020-6-28 14:24
モデレータ
登録日: 2005-6-12
居住地: 日本
投稿: 2505
オンライン
Comet P/2013 J4 (PANSTARRS) = P/2019 Y2 (Fuls)

Maik Meyerの通報によると、S. DeenがP/2013 J4 (CBET 3521参照)とP/2019 Y2 (CBET 4709参照)
の同一天体であることを提案した。
中野主一氏(兵庫県洲本市)は、同定を確認した。次の軌道要素を計算した。

                    Epoch = 2013 Aug. 16.0 TT
     T = 2013 Aug. 27.85722 TT        Peri. =  92.11297
     e = 0.3854323                    Node  =  80.88801 2000.0
     q = 2.1218169 AU                 Incl. =   4.89732
       a =  3.4525358 AU   n = 0.15363734   P =   6.42 years

                    Epoch = 2020 Feb.  1.0 TT
     T = 2020 Jan. 31.81781 TT        Peri. =  92.33659
     e = 0.3848922                    Node  =  80.83603 2000.0
     q = 2.1248153 AU                 Incl. =   4.89623
       a =  3.4543786 AU   n = 0.15351442   P =   6.42 years

                    Epoch = 2026 July 19.0 TT
     T = 2026 July 25.41973 TT        Peri. =  92.97913
     e = 0.3748779                    Node  =  80.22878 2000.0
     q = 2.1834330 AU                 Incl. =   4.87184
       a =  3.4928105 AU   n = 0.15098769   P =   6.53 years

                    Epoch = 2033 Feb. 12.0 TT
     T = 2033 Feb.  6.58554 TT        Peri. =  93.07946
     e = 0.3731330                    Node  =  80.19245 2000.0
     q = 2.1924931 AU                 Incl. =   4.86952
       a =  3.4975409 AU   n = 0.15068148   P =   6.54 years

from 659 observations. 2013 May 5-2020 May 29 (mean residual 0".6)

Daniel W. E. Greenは。上記軌道要素から次の位置推算表を計算した。

Date    TT    R. A. (2000) Decl.     Delta      r     Elong.  Phase  Mag.
2020 04 21    13 08.74   +00 50.0    1.223    2.203   162.8     7.8  16.9
2020 05 01    13 03.56   +00 46.6    1.279    2.223   152.7    12.0  17.0
2020 05 11    13 00.55   +00 25.3    1.356    2.245   142.8    15.8  17.2
2020 05 21    13 00.03   -00 13.0    1.450    2.268   133.5    18.9  17.4
2020 05 31    13 02.05   -01 06.1    1.559    2.294   124.8    21.3  17.6
2020 06 10    13 06.44   -02 11.4    1.679    2.321   116.8    23.0  17.8
2020 06 20    13 12.91   -03 26.2    1.810    2.349   109.2    24.1  18.0
2020 06 30    13 21.21   -04 48.1    1.948    2.379   102.1    24.7  18.2
2020 07 10    13 31.04   -06 14.8    2.091    2.410    95.4    24.8  18.4
2020 07 20    13 42.15   -07 44.6    2.238    2.442    89.0    24.6  18.6
2020 07 30    13 54.38   -09 15.8    2.388    2.475    82.8    24.0  18.8
2020 08 09    14 07.54   -10 47.0    2.538    2.509    76.8    23.2  19.0
2020 08 19    14 21.49   -12 17.0    2.688    2.544    71.0    22.1  19.2
2020 08 29    14 36.15   -13 44.6    2.836    2.580    65.2    20.8  19.4
2020 09 08    14 51.41   -15 08.9    2.980    2.616    59.4    19.4  19.5

(CBET 4792)

なお、まだ小惑星センターからの発表はない。

スレッド表示 | 新しいものから 前のトピック | 次のトピック | トップ

投稿するにはまず登録を
 
© 1999 Tsutomu Seki.